Regional Weather Roundup
Issued by NWS Kansas City/Pleasant Hill, MO

Home | Current Version | Previous Version | Graphics & Text | Print | Product List | Glossary Off
Versions: 1 2 3 4 5 6 7 8 9 10 11 12 13 14 15 16 17 18 19 20 21 22 23 24 25 26 27 28 29 30 31 32 33 34 35 36 37 38 39 40 41 42 43 44 45 46 47 48 49 50

000
ASUS43 KEAX 280610
RWREAX

WEATHER ROUNDUP FOR EASTERN KANSAS AND NORTHWEST MISSOURI
NATIONAL WEATHER SERVICE KANSAS CITY/PLEASANT HILL MO
100 AM CDT WED JUN 28 2017

KSZ040-057-103>105-MOZ028-029-037-043-280700-
...KANSAS CITY METROPOLITAN AREA...

CITY           SKY/WX    TMP DP  RH WIND       PRES   REMARKS
K.C. INTL      CLOUDY    74  64  71 S17       29.87F
6HR MIN TEMP:  74; 6HR MAX TEMP:  79;

K.C. DOWNTOWN  CLOUDY    76  64  66 S14G23    29.87F
6HR MIN TEMP:  76; 6HR MAX TEMP:  82;

LEES SUMMIT    CLEAR     74  65  73 S16G24    29.89F
6HR MIN TEMP:  74; 6HR MAX TEMP:  80;

OLATHE - IXD   CLEAR     73  64  73 S14       29.89F
6HR MIN TEMP:  72; 6HR MAX TEMP:  80;

OLATHE - OJC   CLOUDY    71  65  81 S14       29.88F
6HR MIN TEMP:  71; 6HR MAX TEMP:  78;

LAWRENCE       CLEAR     75  66  73 SE13      29.87F

$$

MOZ001>008-011>017-020>025-030>033-038>040-044>046-053-054-280700-
...NORTHERN AND CENTRAL MISSOURI...

CITY           SKY/WX    TMP DP  RH WIND       PRES   REMARKS
ST. JOSEPH     CLEAR     74  67  78 S14       29.85F
6HR MIN TEMP:  73; 6HR MAX TEMP:  80;

MOSBY          CLOUDY    72  63  73 SE6       29.88F
WARRENSBURG    CLEAR     72  63  73 SE10G16   29.91F
WHITEMAN AFB   PTCLDY    72  72 100 S10       29.91F
6HR MIN TEMP:  72; 6HR MAX TEMP:  79;

CLINTON        CLEAR     73  64  73 S9        29.95F
SEDALIA        CLEAR     73  66  78 S14       29.96F
6HR MIN TEMP:  73; 6HR MAX TEMP:  79;

WARSAW         NOT AVBL
CHILLICOTHE      N/A     74  65  73 S8        29.89F
6HR MIN TEMP:  73; 6HR MAX TEMP:  78;

KIRKSVILLE     PTCLDY    67  58  72 SE12      29.93F
6HR MIN TEMP:  67; 6HR MAX TEMP:  77;


$$

MOZ041-047>049-056>058-063>065-088>090-097-280700-
...EASTERN AND SOUTHERN MISSOURI...

CITY           SKY/WX    TMP DP  RH WIND       PRES   REMARKS
ST. LOUIS INTL CLEAR     73  54  51 S9        30.04F
6HR MIN TEMP:  73; 6HR MAX TEMP:  81;

SPIRIT OF STL  CLEAR     69  59  70 S3        30.02F
COLUMBIA       MOCLDY    70  64  81 S12       30.00R
JEFFERSON CITY CLEAR     72  63  73 SE9       29.99S
ROLLA          CLEAR     67  63  87 S9        30.02F
OSAGE BEACH    MOCLDY    69  64  84 S8        30.01F
SPRINGFIELD    CLEAR     70  64  81 S15       30.00F
BRANSON          N/A     66  63  88 SE8       30.05S
JOPLIN         CLEAR     74  65  73 S13       29.96F
WEST PLAINS    CLEAR     66  62  87 S5        30.07F

$$

IAZ060-094-KSZ022-034>040-054-083-096-NEZ052-066-093-280700-
...KANSAS...SOUTHEAST NEBRASKA AND IOWA...

CITY           SKY/WX    TMP DP  RH WIND       PRES   REMARKS
TOPEKA         PTCLDY    76  65  68 S14G22    29.85R
6HR MIN TEMP:  75; 6HR MAX TEMP:  81;

MANHATTAN      PTCLDY    77  65  66 S16G29    29.81R
EMPORIA        CLEAR     73  65  75 S16G25    29.87S
CHANUTE          N/A    N/A N/A N/A MISG      29.90F
WICHITA        MOCLDY    78  66  66 S22G31    29.84F
OMAHA          CLOUDY    76  65  68 S24G35    29.72F
LINCOLN        LGT RAIN  75  63  66 NW29G43   29.84R
FALLS CITY     PTCLDY    74  65  73 S17G26    29.79F
LAMONI         CLOUDY    70  63  78 S12G18    29.85F
DES MOINES     MOCLDY    70  59  68 SE13      29.81F

$$




USA.gov is the U.S. government's official web portal to all federal, state and local government web resources and services.